Location: Auckland
(36.8670°S, 174.7670°E)
Time: 08:48:18
(UTC+12:00)

A-11 Canister half - Pass Details

Date: 26 July 2019
Orbit: 1526 x 1682 km, 47.3° (Epoch: 24 August)

Event Time Altitude Azimuth Distance (km) Brightness Sun altitude
Rises 13:53:41 0° 238° (WSW) 4,794 11.5 30.1°
Reaches altitude 10° 13:56:45 10° 238° (WSW) 3,827 11.1 29.8°
Maximum altitude 14:06:32 79° 323° (NW) 1,669 9.9 29.0°
Drops below altitude 10° 14:16:36 10° 47° (NE) 3,920 11.4 28.0°
Sets 14:19:46 0° 48° (NE) 4,914 11.8 27.7°
